Regional Weather Roundup
Issued by NWS Cleveland, OH

Home | Current Version | Previous Version | Text Only | Print | Product List | Glossary On
Versions: 1 2 3 4 5 6 7 8 9 10 11 12 13 14 15 16 17 18 19 20 21 22 23 24 25 26 27 28 29 30 31 32 33 34 35 36 37 38 39 40 41 42 43 44 45 46 47 48 49 50
517
ASUS41 KCLE 290212
RWRCLE
OHIO REGIONAL WEATHER ROUNDUP
NATIONAL WEATHER SERVICE WILMINGTON, OH
1000 PM EDT SUN AUG 28 2016

NOTE: "FAIR" INDICATES FEW OR NO CLOUDS BELOW 12,000 FEET WITH NO
SIGNIFICANT WEATHER AND/OR OBSTRUCTIONS TO VISIBILITY.

OHZ001>008-015>018-024>027-034-035-043-044-290300-
   NORTHWEST OHIO

CITY           SKY/WX    TMP DP  RH WIND       PRES   REMARKS
DEFIANCE       FAIR      73  69  87 CALM      30.21R
FINDLAY        FAIR      75  69  81 CALM      30.19R
TOLEDO EXPRESS FAIR      72  72 100 CALM      30.19R
TOLEDO EXEC    FAIR      76  73  91 CALM      30.19S
LIMA           FAIR      70  70 100 CALM      30.21R
$$

OHZ009>014-019>023-028>033-038-089-290300-
   NORTHEAST OHIO

CITY           SKY/WX    TMP DP  RH WIND       PRES   REMARKS
CLE-HOPKINS    FAIR      76  70  82 SW3       30.21S
CLE-LAKEFRONT  FAIR      78  72  81 CALM      30.18R
CUY CO. ARPT   PTCLDY    77  75  94 CALM      30.21R
LORAIN-ELYRIA  FAIR      69  67  93 CALM      30.20S
ASHTABULA      FAIR      73  73 100 NW3       30.21R
AKRON-CANTON   MOCLDY    68  64  87 CALM      30.21R
WOOSTER        FOG       66  65  96 CALM      30.22R VSB 1
MANSFIELD      FAIR      73  66  78 E3        30.21S
YOUNGSTOWN     MOCLDY    71  69  93 CALM      30.21R
$$

OHZ042-051>053-060>062-070>072-077>081-290300-
  SOUTHWEST OHIO

CITY           SKY/WX    TMP DP  RH WIND       PRES   REMARKS
CINC-COVINGTON MOCLDY    71  70  96 S5        30.22F
CINC-LUNKEN    LGT RAIN N/A N/A N/A SW9       30.23R
HAMILTON       CLOUDY    75  68  78 NW8       30.26R
DAYTON         LGT RAIN  72  68  87 SE15      30.26R
WRIGHT-PAT AFB LGT RAIN  71  70  96 VRB1      30.27R
DAYTON GENERAL MOCLDY    72  66  81 SE7       30.25R THUNDER
WILMINGTON     LGT RAIN  70  67  90 N15       30.25F
$$

OHZ036-037-039>041-045>050-054>059-063>069-073>076-082>088-290300-
  CENTRAL AND SOUTHEAST OHIO

CITY           SKY/WX    TMP DP  RH WIND       PRES   REMARKS
COLUMBUS       MOCLDY    73  69  87 CALM      30.19R
OSU AIRPORT    FAIR      75  68  78 NW3       30.20R
BOLTON FIELD   FAIR      74  70  86 W8        30.22R
RICKENBACK AFB FAIR      73  67  80 W7        30.19R
NEWARK         FAIR      77  69  76 N5        30.19R
MARION         FAIR      76  68  76 CALM      30.21R
LANCASTER      FAIR      73  67  81 CALM      30.19R
ZANESVILLE     FAIR      75  64  68 CALM      30.20R
NEW PHILLY     FAIR      71  66  84 CALM      30.20S
$$




USA.gov is the U.S. government's official web portal to all federal, state and local government web resources and services.